Torna al catalogo

FENGYUN 1C DEB

AttivoPO
NORAD 36167·DEBRIS·🇨🇳 China

Lanciato May 10, 1999 da Taiyuan Satellite Launch Center

Loading…

Prossimi Passaggi (prossime 24 ore)

TLE

AggiornatoSource: Space-Track

Epoca: Sep 14, 2026, 01:42 UTC

1 36167U 99025DSQ 26257.07099588  .00001950  00000-0  49050-3 0  9992
2 36167  98.8085 181.9134 0068105 131.8293 228.8743 14.51044546712702

Traccia FENGYUN 1C DEB in tempo reale con AllMySat

Download on the App Store